Location: Newark
(46.2667°N, 5.0658°E)
Time: 12:56:24
(UTC+00:00)

N. Korean satellite - Visible Passes

Search period start: 17 September 2019 00:00
Search period end: 27 September 2019 00:00
Orbit: 455 x 508 km, 97.2° (Epoch: 16 September)

Date Brightness Start Highest point End Pass type
(mag) Time Alt. Az. Time Alt. Az. Time Alt. Az.
17 Sep 9.8 04:43:06 10° NE 04:45:06 15° E 04:47:06 10° SE visible
21 Sep 10.1 04:36:05 10° ENE 04:37:32 12° E 04:38:58 10° ESE visible
24 Sep 9.7 04:52:48 10° NE 04:55:23 19° E 04:57:56 10° SE visible
